When you browse on this site, cookies collect data to enhance your experience and personalize the content and advertising you see.
Visit our Privacy Policy to learn more. By continuing to use the site, you agree to this use of cookies and data.
  • In Romania
  • List of Countries
  • For 7 days
  • Water Temperature
  • Weather Map
  • Weather Widgets
  • user-avatar
    Login

    Hourly Weather Graz

    Today, 19 October, Saturday

    Time Temperature Precipitation Wind Pressure Humidity
    00:00 +12°C° 0 mm 1 mps 723 mmHg 92%
    01:00 +12°C° 0 mm 1 mps 723 mmHg 92%
    02:00 +12°C° 0 mm 1 mps 723 mmHg 92%
    03:00 +11°C° 0 mm 1 mps 723 mmHg 93%
    04:00 +11°C° 0 mm 1 mps 723 mmHg 93%
    05:00 +11°C° 0 mm 1 mps 723 mmHg 93%
    06:00 +11°C° 0 mm 1 mps 722 mmHg 93%
    07:00 +11°C° 0 mm 1 mps 722 mmHg 93%
    08:00 +13°C° 0 mm 1 mps 722 mmHg 86%
    09:00 +15°C° 0 mm 1 mps 722 mmHg 78%
    10:00 +18°C° 0 mm 1 mps 722 mmHg 71%
    11:00 +18°C° 0 mm 2 mps 722 mmHg 67%
    12:00 +19°C° 0 mm 2 mps 722 mmHg 64%
    13:00 +20°C° 0 mm 3 mps 722 mmHg 60%
    14:00 +19°C° 0 mm 2 mps 722 mmHg 63%
    15:00 +19°C° 0 mm 2 mps 722 mmHg 66%
    16:00 +20°C° 0 mm 1 mps 721 mmHg 69%
    17:00 +18°C° 0 mm 1 mps 722 mmHg 76%
    18:00 +15°C° 0 mm 1 mps 722 mmHg 83%
    19:00 +14°C° 0 mm 2 mps 722 mmHg 89%
    20:00 +13°C° 0 mm 2 mps 722 mmHg 90%
    21:00 +13°C° 0 mm 2 mps 722 mmHg 91%
    22:00 +13°C° 0 mm 2 mps 722 mmHg 92%
    23:00 +13°C° 0 mm 1 mps 723 mmHg 93%

    Tomorrow, 20 October, Sunday

    Time Temperature Precipitation Wind Pressure Humidity
    00:00 +12°C° 0 mm 1 mps 723 mmHg 93%
    01:00 +12°C° 0 mm 1 mps 723 mmHg 93%
    02:00 +12°C° 0 mm 1 mps 723 mmHg 93%
    03:00 +12°C° 0 mm 1 mps 723 mmHg 93%
    04:00 +12°C° 0 mm 1 mps 723 mmHg 94%
    05:00 +12°C° 0 mm 1 mps 722 mmHg 93%
    06:00 +12°C° 0 mm 1 mps 722 mmHg 93%
    07:00 +12°C° 0 mm 1 mps 722 mmHg 93%
    08:00 +14°C° 0 mm 1 mps 723 mmHg 87%
    09:00 +16°C° 0 mm 2 mps 723 mmHg 80%
    10:00 +18°C° 0 mm 2 mps 723 mmHg 74%
    11:00 +19°C° 0 mm 2 mps 723 mmHg 69%
    12:00 +20°C° 0 mm 3 mps 723 mmHg 65%
    13:00 +21°C° 0 mm 3 mps 723 mmHg 60%
    14:00 +20°C° 0 mm 3 mps 722 mmHg 63%
    15:00 +20°C° 0 mm 2 mps 722 mmHg 66%
    16:00 +19°C° 0 mm 2 mps 722 mmHg 70%
    17:00 +18°C° 0 mm 2 mps 722 mmHg 75%
    18:00 +17°C° 0 mm 2 mps 722 mmHg 80%
    19:00 +15°C° 0 mm 2 mps 723 mmHg 86%
    20:00 +15°C° 0 mm 2 mps 723 mmHg 87%
    21:00 +14°C° 0 mm 2 mps 723 mmHg 88%
    22:00 +14°C° 0 mm 2 mps 723 mmHg 88%
    23:00 +14°C° 0 mm 2 mps 723 mmHg 88%

    Day after tomorrow, 21 October, Monday

    Time Temperature Precipitation Wind Pressure Humidity
    00:00 +13°C° 0 mm 2 mps 723 mmHg 88%
    01:00 +13°C° 0 mm 2 mps 723 mmHg 88%
    02:00 +13°C° 0 mm 2 mps 723 mmHg 88%
    03:00 +13°C° 0 mm 2 mps 723 mmHg 88%
    04:00 +13°C° 0 mm 2 mps 723 mmHg 88%
    05:00 +13°C° 0 mm 2 mps 723 mmHg 87%
    06:00 +13°C° 0 mm 2 mps 724 mmHg 87%
    07:00 +13°C° 0 mm 2 mps 724 mmHg 87%
    08:00 +15°C° 0 mm 2 mps 724 mmHg 80%
    09:00 +18°C° 0 mm 2 mps 725 mmHg 73%
    10:00 +20°C° 0 mm 2 mps 725 mmHg 65%
    11:00 +21°C° 0 mm 2 mps 725 mmHg 62%
    12:00 +23°C° 0 mm 2 mps 725 mmHg 59%
    13:00 +25°C° 0 mm 2 mps 725 mmHg 56%
    14:00 +24°C° 0 mm 2 mps 725 mmHg 61%
    15:00 +23°C° 0 mm 2 mps 725 mmHg 67%
    16:00 +21°C° 0 mm 2 mps 725 mmHg 72%
    17:00 +19°C° 0 mm 2 mps 725 mmHg 78%
    18:00 +19°C° 0 mm 1 mps 725 mmHg 84%
    19:00 +16°C° 0 mm 1 mps 726 mmHg 89%
    20:00 +16°C° 0 mm 1 mps 726 mmHg 90%
    21:00 +15°C° 0 mm 1 mps 726 mmHg 91%
    22:00 +15°C° 0 mm 1 mps 726 mmHg 91%
    23:00 +15°C° 0 mm 1 mps 726 mmHg 91%

    22 October, Tuesday

    Time Temperature Precipitation Wind Pressure Humidity
    00:00 +14°C° 0 mm 1 mps 726 mmHg 92%
    01:00 +14°C° 0 mm 1 mps 727 mmHg 92%
    02:00 +14°C° 0 mm 1 mps 727 mmHg 92%
    03:00 +14°C° 0 mm 1 mps 727 mmHg 93%
    04:00 +13°C° 0 mm 1 mps 727 mmHg 93%
    05:00 +13°C° 0 mm 1 mps 727 mmHg 93%
    06:00 +13°C° 0 mm 1 mps 727 mmHg 93%
    07:00 +13°C° 0 mm 1 mps 727 mmHg 92%
    08:00 +15°C° 0 mm 1 mps 728 mmHg 85%
    09:00 +16°C° 0 mm 0 mps 728 mmHg 78%
    10:00 +18°C° 0 mm 0 mps 728 mmHg 71%
    11:00 +21°C° 0 mm 1 mps 728 mmHg 69%
    12:00 +22°C° 0 mm 1 mps 728 mmHg 67%
    13:00 +22°C° 0 mm 1 mps 728 mmHg 64%
    14:00 +22°C° 0 mm 1 mps 728 mmHg 68%
    15:00 +21°C° 0 mm 1 mps 728 mmHg 72%
    16:00 +20°C° 0 mm 1 mps 727 mmHg 76%
    17:00 +19°C° 0 mm 1 mps 727 mmHg 81%
    18:00 +16°C° 0 mm 0 mps 728 mmHg 86%
    19:00 +14°C° 0 mm 0 mps 728 mmHg 90%
    20:00 +14°C° 0 mm 0 mps 728 mmHg 91%
    21:00 +14°C° 0 mm 0 mps 728 mmHg 92%
    22:00 +13°C° 0 mm 0 mps 728 mmHg 93%
    23:00 +13°C° 0 mm 0 mps 727 mmHg 93%

    23 October, Wednesday

    Time Temperature Precipitation Wind Pressure Humidity
    00:00 +13°C° 0 mm 0 mps 727 mmHg 93%
    01:00 +13°C° 0 mm 0 mps 727 mmHg 94%
    02:00 +13°C° 0 mm 0 mps 727 mmHg 94%
    03:00 +12°C° 0 mm 0 mps 727 mmHg 94%
    04:00 +12°C° 0 mm 0 mps 726 mmHg 95%
    05:00 +12°C° 0 mm 0 mps 726 mmHg 95%
    06:00 +12°C° 0 mm 0 mps 726 mmHg 95%
    07:00 +12°C° 0 mm 0 mps 726 mmHg 95%
    08:00 +14°C° 0 mm 0 mps 726 mmHg 87%
    09:00 +16°C° 0 mm 0 mps 726 mmHg 80%
    10:00 +18°C° 0 mm 0 mps 726 mmHg 73%
    11:00 +21°C° 0 mm 1 mps 726 mmHg 69%
    12:00 +22°C° 0 mm 1 mps 726 mmHg 64%
    13:00 +23°C° 0 mm 1 mps 726 mmHg 60%
    14:00 +22°C° 0 mm 1 mps 726 mmHg 65%
    15:00 +21°C° 0 mm 1 mps 725 mmHg 70%
    16:00 +20°C° 0 mm 1 mps 725 mmHg 75%
    17:00 +19°C° 0 mm 1 mps 725 mmHg 79%
    18:00 +18°C° 0 mm 1 mps 725 mmHg 84%
    19:00 +15°C° 0 mm 1 mps 725 mmHg 88%
    20:00 +15°C° 0 mm 1 mps 725 mmHg 89%
    21:00 +14°C° 0 mm 1 mps 725 mmHg 89%
    22:00 +14°C° 0 mm 1 mps 725 mmHg 90%
    23:00 +14°C° 0 mm 1 mps 725 mmHg 90%

    24 October, Thursday

    Time Temperature Precipitation Wind Pressure Humidity
    00:00 +13°C° 0 mm 1 mps 724 mmHg 91%
    01:00 +13°C° 0 mm 1 mps 724 mmHg 91%
    02:00 +13°C° 0 mm 1 mps 724 mmHg 91%
    03:00 +13°C° 0 mm 1 mps 724 mmHg 91%
    04:00 +12°C° 0 mm 1 mps 724 mmHg 91%
    05:00 +12°C° 0 mm 1 mps 724 mmHg 90%
    06:00 +12°C° 0 mm 1 mps 724 mmHg 89%
    07:00 +12°C° 0 mm 1 mps 724 mmHg 88%
    08:00 +14°C° 0 mm 1 mps 724 mmHg 79%
    09:00 +18°C° 0 mm 1 mps 724 mmHg 70%
    10:00 +20°C° 0 mm 1 mps 724 mmHg 62%
    11:00 +21°C° 0 mm 1 mps 724 mmHg 58%
    12:00 +22°C° 0 mm 1 mps 725 mmHg 54%
    13:00 +23°C° 0 mm 1 mps 725 mmHg 51%
    14:00 +22°C° 0 mm 1 mps 724 mmHg 56%
    15:00 +21°C° 0 mm 1 mps 724 mmHg 62%
    16:00 +18°C° 0 mm 0 mps 724 mmHg 67%
    17:00 +17°C° 0 mm 0 mps 724 mmHg 70%
    18:00 +16°C° 0 mm 1 mps 724 mmHg 73%
    19:00 +15°C° 0 mm 1 mps 724 mmHg 76%
    20:00 +15°C° 0 mm 1 mps 724 mmHg 76%
    21:00 +15°C° 0 mm 1 mps 725 mmHg 77%
    22:00 +14°C° 0 mm 1 mps 725 mmHg 78%
    23:00 +14°C° 0 mm 1 mps 725 mmHg 79%
    Show more